DW0452 Weather Reports


Display with metric or nautical units.
time (UTC)temp
F
wind
direction
speed
MPH
gust
MPH
rain 1hr
in
rain 24hr
in
rain mn
in
humidity
%
barometer
mb
20180122101324 34 112 2.0 6.0 0.00 0.12 0.02 95 1016.8
20180122100819 34 114 3.0 6.0 0.00 0.12 0.02 95 1016.8
20180122100337 34 104 2.0 7.0 0.00 0.12 0.02 95 1016.6
20180122095835 34 144 3.0 7.0 0.00 0.12 0.02 95 1016.8
20180122095329 34 118 4.0 7.0 0.00 0.12 0.02 95 1016.7
20180122094826 34 127 3.0 4.0 0.00 0.12 0.02 95 1016.5
20180122094326 34 106 1.0 4.0 0.00 0.12 0.02 95 1016.6
20180122093822 34 96 1.0 3.0 0.00 0.12 0.02 95 1016.7
20180122093318 34 118 1.0 6.0 0.00 0.12 0.02 95 1016.7
20180122092835 34 102 2.0 6.0 0.00 0.12 0.02 95 1016.8
20180122092331 34 116 2.0 7.0 0.00 0.12 0.02 95 1016.9
20180122091829 35 115 3.0 7.0 0.00 0.12 0.02 95 1016.8
20180122091329 35 114 3.0 6.0 0.00 0.12 0.02 95 1017.0
20180122090824 35 118 2.0 6.0 0.04 0.12 0.02 95 1017.0
20180122090323 35 120 2.0 6.0 0.04 0.12 0.02 95 1016.9
20180122085819 35 128 2.0 6.0 0.04 0.12 0.02 95 1016.8
20180122085335 35 124 2.0 4.0 0.04 0.12 0.02 95 1016.8
20180122084830 35 123 2.0 4.0 0.04 0.12 0.02 95 1017.1
20180122084328 35 116 2.0 4.0 0.04 0.12 0.02 95 1017.1
20180122083824 35 119 2.0 4.0 0.08 0.12 0.02 95 1017.0
20180122083320 35 124 1.0 3.0 0.08 0.12 0.02 95 1016.9
20180122082837 35 125 1.0 3.0 0.08 0.12 0.02 95 1017.2
20180122082336 34 112 1.0 3.0 0.08 0.12 0.02 95 1017.3
20180122081832 34 112 1.0 3.0 0.08 0.12 0.02 95 1017.1
20180122081327 34 113 1.0 3.0 0.08 0.12 0.02 95 1017.0
20180122080823 34 113 1.0 3.0 0.04 0.08 0.01 95 1017.1
20180122080318 34 131 0.0 1.0 0.04 0.08 0.01 95 1017.0
20180122075834 34 131 0.0 1.0 0.04 0.08 0.01 95 1017.0
20180122075330 34 131 0.0 2.0 0.04 0.08 0.01 95 1016.9
20180122074830 34 131 0.0 2.0 0.04 0.08 0.01 95 1016.9
20180122074329 34 118 0.0 1.0 0.04 0.08 0.01 95 1017.1
20180122073826 34 118 0.0 1.0 0.00 0.04 0.00 95 1017.2
20180122073326 34 118 0.0 2.0 0.00 0.04 0.00 95 1017.2
20180122072823 34 118 0.0 3.0 0.00 0.04 0.00 95 1017.2
20180122072319 34 118 1.0 3.0 0.00 0.04 0.00 95 1017.3
20180122071836 34 118 1.0 3.0 0.00 0.04 0.00 95 1017.3
20180122071336 34 118 1.0 2.0 0.00 0.04 0.00 95 1017.3
20180122070834 34 118 0.0 2.0 0.00 0.04 0.00 95 1017.3
20180122070330 34 118 1.0 2.0 0.00 0.04 0.00 95 1017.2
20180122065823 34 118 1.0 4.0 0.00 0.04 0.00 95 1017.1
20180122065320 34 133 1.0 4.0 0.00 0.04 0.00 95 1017.2
20180122064819 34 141 3.0 4.0 0.00 0.04 0.00 95 1017.3
20180122064334 34 131 2.0 4.0 0.00 0.04 0.00 95 1017.3
20180122063830 34 125 2.0 4.0 0.00 0.04 0.00 95 1017.3
20180122063326 34 137 3.0 4.0 0.00 0.04 0.00 95 1017.5
20180122062827 34 127 2.0 4.0 0.00 0.04 0.00 95 1017.5
20180122062326 34 138 3.0 4.0 0.00 0.04 0.00 95 1017.4
20180122061826 34 147 2.0 4.0 0.00 0.04 0.00 95 1017.5
20180122061326 34 147 3.0 5.0 0.00 0.04 0.00 95 1017.5
20180122060826 34 161 3.0 5.0 0.00 0.04 0.00 95 1017.3
20180122060322 34 155 3.0 6.0 0.00 0.04 0.00 95 1017.4
20180122055821 34 140 2.0 4.0 0.00 0.04 0.00 95 1017.5
20180122055317 34 140 2.0 4.0 0.00 0.04 0.00 95 1017.5
20180122054834 34 135 2.0 4.0 0.00 0.04 0.00 95 1017.6
20180122054330 34 119 1.0 3.0 0.00 0.04 0.00 95 1017.7
20180122053827 34 120 2.0 4.0 0.00 0.04 0.00 95 1017.8
20180122053323 34 122 1.0 4.0 0.00 0.04 0.00 95 1017.8
20180122052821 34 124 1.0 4.0 0.00 0.04 0.00 95 1017.8
20180122052317 34 139 1.0 3.0 0.00 0.04 0.00 95 1018.1
20180122051818 34 143 1.0 3.0 0.00 0.04 0.00 95 1018.1
20180122051334 34 143 0.0 1.0 0.00 0.04 0.00 95 1018.1
20180122050833 34 143 0.0 1.0 0.00 0.04 0.00 95 1018.2
20180122050331 34 143 0.0 2.0 0.00 0.04 0.00 95 1018.2
20180122045825 34 143 0.0 0.0 0.00 0.04 0.01 95 1018.3
20180122045321 34 143 0.0 3.0 0.00 0.04 0.01 95 1018.3
20180122044836 34 143 1.0 3.0 0.00 0.04 0.01 95 1018.3
20180122044332 34 120 1.0 3.0 0.00 0.04 0.01 95 1018.2
20180122043829 34 137 1.0 2.0 0.00 0.04 0.01 95 1018.1
20180122043326 34 137 1.0 2.0 0.00 0.04 0.01 95 1018.2
20180122042823 34 137 0.0 0.0 0.00 0.04 0.01 95 1018.3
20180122042320 34 137 0.0 2.0 0.04 0.04 0.01 95 1018.2
20180122041817 34 137 0.0 2.0 0.04 0.04 0.01 95 1018.2
20180122041334 34 137 0.0 0.0 0.04 0.04 0.01 95 1018.2
20180122040853 34 137 0.0 0.0 0.04 0.04 0.01 95 1018.3
20180122040349 34 137 0.0 0.0 0.04 0.04 0.01 95 1018.1
20180122035845 34 137 0.0 0.0 0.04 0.04 0.01 95 1018.2
20180122035342 34 137 0.0 1.0 0.04 0.04 0.01 95 1018.1
20180122034858 34 137 0.0 1.0 0.04 0.04 0.01 95 1018.1
20180122034353 34 137 0.0 1.0 0.04 0.04 0.01 95 1018.1
20180122033848 34 137 0.0 2.0 0.04 0.04 0.01 95 1018.2
20180122033344 34 137 1.0 3.0 0.04 0.04 0.01 95 1018.1
20180122032839 34 137 2.0 3.0 0.04 0.04 0.01 95 1018.2
20180122032355 34 133 2.0 3.0 0.00 0.00 0.00 95 1018.0
20180122031855 34 133 1.0 2.0 0.00 0.00 0.00 95 1018.2
20180122031354 34 133 1.0 2.0 0.00 0.00 0.00 95 1018.2
20180122030854 34 133 0.0 3.0 0.00 0.00 0.00 95 1018.3
20180122030354 34 137 2.0 3.0 0.00 0.00 0.00 95 1018.4
20180122025848 34 137 1.0 3.0 0.00 0.00 0.00 95 1018.5
20180122025344 34 136 0.0 2.0 0.00 0.00 0.00 95 1018.4
20180122024842 34 136 1.0 2.0 0.00 0.00 0.00 95 1018.5
20180122024358 34 136 1.0 2.0 0.00 0.00 0.00 95 1018.4
20180122023856 34 137 0.0 3.0 0.00 0.00 0.00 95 1018.5
20180122023352 34 136 1.0 3.0 0.00 0.00 0.00 95 1018.4
20180122022846 34 133 2.0 3.0 0.00 0.00 0.00 95 1018.4
20180122022341 34 133 1.0 3.0 0.00 0.00 0.00 95 1018.4
20180122021856 34 133 0.0 3.0 0.00 0.00 0.00 94 1018.5
20180122021351 34 133 1.0 4.0 0.00 0.00 0.00 94 1018.4
20180122020851 34 133 2.0 4.0 0.00 0.00 0.00 94 1018.1
20180122020351 34 133 2.0 3.0 0.00 0.00 0.00 94 1018.1
20180122015849 34 133 2.0 4.0 0.00 0.00 0.00 94 1018.2
20180122015349 34 137 1.0 4.0 0.00 0.00 0.00 94 1018.0
20180122014844 34 118 2.0 4.0 0.00 0.00 0.00 94 1018.0
20180122014340 34 140 0.0 2.0 0.00 0.00 0.00 94 1018.0
20180122013838 34 140 1.0 4.0 0.00 0.00 0.00 94 1018.1
20180122013356 34 131 2.0 4.0 0.00 0.00 0.00 94 1018.1
20180122012852 34 153 2.0 5.0 0.00 0.00 0.00 94 1018.2
20180122012347 34 135 2.0 5.0 0.00 0.00 0.00 94 1018.3
20180122011843 34 138 3.0 5.0 0.00 0.00 0.00 94 1018.3
20180122011357 34 135 2.0 4.0 0.00 0.00 0.00 94 1018.3
20180122010853 34 123 2.0 3.0 0.00 0.00 0.00 94 1018.3
20180122010351 34 125 1.0 3.0 0.00 0.00 0.00 94 1018.4
20180122005846 34 125 1.0 4.0 0.00 0.00 0.00 94 1018.3
20180122005341 34 123 1.0 4.0 0.00 0.00 0.00 94 1018.5
20180122004858 34 116 2.0 6.0 0.00 0.00 0.00 94 1018.3
20180122004355 34 123 2.0 6.0 0.00 0.00 0.00 94 1018.3
20180122003851 34 125 2.0 4.0 0.00 0.00 0.00 94 1018.3
20180122003349 34 131 1.0 3.0 0.00 0.00 0.00 94 1018.4
20180122002845 34 131 1.0 3.0 0.00 0.00 0.00 94 1018.4
20180122002341 34 115 2.0 3.0 0.00 0.00 0.00 94 1018.3
20180122001838 34 111 2.0 4.0 0.00 0.00 0.00 94 1018.3
20180122001357 34 110 2.0 4.0 0.00 0.00 0.00 94 1018.3
20180122000852 34 131 1.0 4.0 0.00 0.00 0.00 94 1018.3
20180122000348 34 131 2.0 4.0 0.00 0.00 0.00 94 1018.4
20180121235845 34 131 2.0 5.0 0.00 0.00 0.00 94 1018.4
20180121235343 34 134 2.0 4.0 0.00 0.00 0.00 94 1018.4
20180121234857 34 141 2.0 4.0 0.00 0.00 0.00 94 1018.5
20180121234352 34 152 3.0 5.0 0.00 0.00 0.00 94 1018.4
20180121233848 34 128 2.0 5.0 0.00 0.00 0.00 94 1018.2
20180121233344 34 140 2.0 5.0 0.00 0.00 0.00 94 1018.2
20180121232840 34 118 2.0 4.0 0.00 0.00 0.00 94 1018.2
20180121232354 34 129 2.0 4.0 0.00 0.00 0.00 94 1018.2
20180121231847 34 139 2.0 4.0 0.00 0.00 0.00 94 1018.0
20180121231342 34 129 3.0 5.0 0.00 0.00 0.00 94 1018.1
20180121230838 34 135 3.0 5.0 0.00 0.00 0.00 94 1018.1
20180121230350 34 133 3.0 5.0 0.00 0.00 0.00 94 1018.1
20180121225846 34 108 2.0 4.0 0.00 0.00 0.00 94 1018.0
20180121225342 34 108 2.0 6.0 0.00 0.00 0.00 94 1018.1
20180121224838 34 126 3.0 6.0 0.00 0.00 0.00 94 1018.1
20180121224354 34 118 2.0 6.0 0.00 0.00 0.00 94 1018.2
20180121223853 34 112 2.0 3.0 0.00 0.00 0.00 94 1018.2
20180121223349 35 112 1.0 4.0 0.00 0.00 0.00 94 1018.1
20180121222845 35 112 1.0 4.0 0.00 0.00 0.00 94 1018.1
20180121222341 35 131 2.0 4.0 0.00 0.00 0.00 94 1018.0
20180121221856 35 125 2.0 4.0 0.00 0.00 0.00 94 1018.2
20180121221350 35 132 1.0 2.0 0.00 0.00 0.00 93 1018.2
20180121220846 35 132 0.0 2.0 0.00 0.00 0.00 93 1018.1
20180121220341 35 132 0.0 2.0 0.00 0.00 0.00 93 1018.1
20180121215838 35 132 0.0 2.0 0.00 0.00 0.00 93 1018.1
20180121215357 35 132 1.0 3.0 0.00 0.00 0.00 93 1018.1
20180121214834 35 132 1.0 3.0 0.00 0.00 0.00 93 1018.1
20180121214330 35 146 1.0 2.0 0.00 0.00 0.00 93 1018.0
20180121213825 35 146 1.0 3.0 0.00 0.00 0.00 93 1017.9
20180121213325 35 146 1.0 3.0 0.00 0.00 0.00 93 1018.1
20180121212821 35 152 0.0 0.0 0.00 0.00 0.00 93 1018.1
20180121212336 35 152 0.0 0.0 0.00 0.00 0.00 93 1018.1
20180121211832 35 152 0.0 0.0 0.00 0.00 0.00 93 1018.1
20180121211329 35 152 0.0 1.0 0.00 0.00 0.00 93 1018.0
20180121210824 35 152 0.0 1.0 0.00 0.00 0.00 93 1018.0
20180121210320 35 152 0.0 1.0 0.00 0.00 0.00 93 1017.9
20180121205836 35 152 0.0 0.0 0.00 0.00 0.00 92 1017.9
20180121205334 35 152 0.0 0.0 0.00 0.00 0.00 92 1018.0
20180121204830 35 152 0.0 0.0 0.00 0.00 0.00 92 1017.9
20180121204327 35 152 0.0 0.0 0.00 0.00 0.00 92 1017.9
20180121203822 35 152 0.0 0.0 0.00 0.00 0.00 92 1017.7
20180121203318 35 152 0.0 0.0 0.00 0.00 0.00 93 1017.7
20180121202834 35 152 0.0 1.0 0.00 0.00 0.00 93 1017.7
20180121202330 36 152 0.0 2.0 0.00 0.00 0.00 93 1017.7
20180121201826 36 152 0.0 3.0 0.00 0.00 0.00 92 1017.6
20180121201325 36 152 0.0 2.0 0.00 0.00 0.00 92 1017.6
20180121200822 36 152 1.0 3.0 0.00 0.00 0.00 92 1017.6
20180121200317 36 152 1.0 3.0 0.00 0.00 0.00 92 1017.4
20180121195835 36 155 1.0 3.0 0.00 0.00 0.00 92 1017.6
20180121195330 36 155 1.0 2.0 0.00 0.00 0.00 92 1017.6
20180121194826 36 155 1.0 2.0 0.00 0.00 0.00 92 1017.6
20180121194322 36 155 0.0 1.0 0.00 0.00 0.00 92 1017.5
20180121193817 36 155 0.0 3.0 0.00 0.00 0.00 92 1017.5
20180121193334 36 155 1.0 3.0 0.00 0.00 0.00 92 1017.4
20180121192830 36 155 0.0 0.0 0.00 0.00 0.00 91 1017.5
20180121192325 36 155 0.0 0.0 0.00 0.00 0.00 91 1017.5
20180121191821 36 155 0.0 0.0 0.00 0.00 0.00 91 1017.6
20180121191317 36 155 0.0 2.0 0.00 0.00 0.00 91 1017.6
20180121190836 36 155 0.0 2.0 0.00 0.00 0.00 91 1017.5
20180121190333 36 155 0.0 2.0 0.00 0.00 0.00 91 1017.5
20180121185828 36 155 0.0 2.0 0.00 0.00 0.00 91 1017.4
20180121185329 36 155 0.0 3.0 0.00 0.00 0.00 91 1017.4
20180121184824 36 154 2.0 4.0 0.00 0.00 0.00 91 1017.3
20180121184320 36 133 2.0 4.0 0.00 0.00 0.00 91 1017.3
20180121183817 36 152 2.0 6.0 0.00 0.00 0.00 90 1017.5
20180121183333 36 152 3.0 6.0 0.00 0.00 0.00 90 1017.6
20180121182829 36 160 2.0 4.0 0.00 0.00 0.00 90 1017.7
20180121182324 36 165 1.0 3.0 0.00 0.00 0.00 90 1017.9
20180121181820 36 166 2.0 4.0 0.00 0.00 0.00 90 1017.9
20180121181316 36 174 2.0 4.0 0.00 0.00 0.00 90 1018.0
20180121180832 37 175 1.0 3.0 0.00 0.00 0.00 90 1018.1
20180121180328 37 175 1.0 2.0 0.00 0.00 0.00 90 1018.3
20180121175827 36 175 0.0 3.0 0.00 0.00 0.00 90 1018.2
20180121175326 36 190 1.0 3.0 0.00 0.00 0.00 91 1018.2
20180121174822 36 192 0.0 2.0 0.00 0.00 0.00 91 1018.3
20180121174318 36 193 1.0 2.0 0.00 0.00 0.00 91 1018.4
20180121173818 36 193 1.0 3.0 0.00 0.00 0.00 91 1018.4
20180121173335 36 193 1.0 3.0 0.00 0.00 0.00 92 1018.4
20180121172830 36 193 0.0 2.0 0.00 0.00 0.00 92 1018.6
20180121172325 36 193 1.0 2.0 0.00 0.00 0.00 93 1018.6
20180121171821 36 193 1.0 2.0 0.00 0.00 0.00 93 1018.4
20180121171317 36 193 0.0 3.0 0.00 0.00 0.00 93 1018.5
20180121170833 35 193 1.0 3.0 0.00 0.00 0.00 94 1018.6
20180121170328 35 193 0.0 3.0 0.00 0.00 0.00 94 1018.8
20180121165824 35 193 0.0 3.0 0.00 0.00 0.00 94 1019.0
20180121165320 35 194 0.0 3.0 0.00 0.00 0.00 94 1019.1
20180121164836 34 193 0.0 3.0 0.00 0.00 0.00 94 1019.2
20180121164331 34 201 1.0 3.0 0.00 0.00 0.00 94 1019.3
20180121163826 34 201 1.0 2.0 0.00 0.00 0.00 94 1019.3
20180121163322 34 201 0.0 2.0 0.00 0.00 0.00 94 1019.3
20180121162818 34 202 1.0 3.0 0.00 0.00 0.00 94 1019.3
20180121162334 34 202 1.0 3.0 0.00 0.00 0.00 94 1019.3
20180121161830 34 201 1.0 3.0 0.00 0.00 0.00 94 1019.5
20180121161330 33 204 0.0 1.0 0.00 0.00 0.00 94 1019.6
20180121160827 33 204 0.0 1.0 0.00 0.00 0.00 94 1019.5
20180121160325 33 204 0.0 2.0 0.00 0.00 0.00 94 1019.5
20180121155821 33 204 0.0 1.0 0.00 0.00 0.00 94 1019.5
20180121155316 33 204 0.0 2.0 0.00 0.00 0.00 94 1019.5
20180121154831 32 204 1.0 2.0 0.00 0.00 0.00 94 1019.6
20180121154327 32 204 0.0 0.0 0.00 0.00 0.00 94 1019.6
20180121153822 32 204 0.0 2.0 0.00 0.00 0.00 94 1019.7
20180121153318 32 204 0.0 2.0 0.00 0.00 0.00 94 1019.5
20180121152834 31 204 1.0 2.0 0.00 0.00 0.00 94 1019.4
20180121152329 31 204 1.0 2.0 0.00 0.00 0.00 94 1019.4
20180121151825 31 222 0.0 1.0 0.00 0.00 0.00 94 1019.5
20180121151322 31 222 0.0 1.0 0.00 0.00 0.00 94 1019.6
20180121150816 31 222 0.0 2.0 0.00 0.00 0.00 94 1019.7
20180121150333 30 222 1.0 3.0 0.00 0.00 0.00 94 1019.9
20180121145828 30 222 1.0 4.0 0.00 0.00 0.00 94 1019.8
20180121145331 30 220 2.0 4.0 0.00 0.00 0.00 94 1019.7
20180121144831 30 198 0.0 2.0 0.00 0.00 0.00 94 1019.7
20180121144328 30 183 0.0 3.0 0.00 0.00 0.00 94 1019.8
20180121143824 29 183 0.0 3.0 0.00 0.00 0.00 93 1019.6
20180121143319 29 248 1.0 3.0 0.00 0.00 0.00 93 1019.7
20180121142836 29 248 2.0 3.0 0.00 0.00 0.00 93 1019.6
20180121142328 29 272 0.0 0.0 0.00 0.00 0.00 93 1019.4
20180121141821 29 272 0.0 0.0 0.00 0.00 0.00 93 1019.3
20180121141334 29 272 0.0 0.0 0.00 0.00 0.00 93 1019.3
20180121140827 29 272 0.0 2.0 0.00 0.00 0.00 93 1019.4
20180121140320 29 272 1.0 2.0 0.00 0.00 0.00 93 1019.4
20180121135832 29 272 0.0 1.0 0.00 0.00 0.00 93 1019.2
20180121135326 28 272 0.0 0.0 0.00 0.00 0.00 93 1019.3
20180121134819 28 272 0.0 0.0 0.00 0.00 0.00 93 1019.4
20180121134335 28 272 0.0 1.0 0.00 0.00 0.00 93 1019.5
20180121133830 28 272 1.0 1.0 0.00 0.00 0.00 93 1019.6
20180121133326 28 272 0.0 0.0 0.00 0.00 0.00 93 1019.5
20180121132826 28 272 0.0 0.0 0.00 0.00 0.00 93 1019.5
20180121132326 28 272 0.0 0.0 0.00 0.00 0.00 93 1019.4
20180121131823 28 272 0.0 1.0 0.00 0.00 0.00 93 1019.3
20180121131319 28 272 0.0 1.0 0.00 0.00 0.00 93 1019.3
20180121130816 28 272 0.0 0.0 0.00 0.00 0.00 93 1019.3
20180121130335 28 272 0.0 0.0 0.00 0.00 0.00 93 1019.3
20180121125831 28 272 0.0 0.0 0.00 0.00 0.00 93 1019.3
20180121125326 28 272 0.0 0.0 0.00 0.00 0.00 93 1019.2
20180121124826 28 272 0.0 1.0 0.00 0.00 0.00 93 1019.2
20180121124326 28 272 0.0 1.0 0.00 0.00 0.00 93 1019.1
20180121123825 28 272 0.0 0.0 0.00 0.00 0.00 93 1019.0
20180121123323 28 272 0.0 2.0 0.00 0.00 0.00 93 1019.0
20180121122821 28 272 0.0 2.0 0.00 0.00 0.00 93 1019.0
20180121122321 28 270 1.0 2.0 0.00 0.00 0.00 93 1019.0
20180121121821 27 270 1.0 3.0 0.00 0.00 0.00 92 1019.1
20180121121318 28 241 2.0 3.0 0.00 0.00 0.00 92 1019.1
20180121120817 28 241 0.0 2.0 0.00 0.00 0.00 92 1019.1
20180121120333 28 241 0.0 2.0 0.00 0.00 0.00 92 1019.0
20180121115829 28 241 1.0 2.0 0.00 0.00 0.00 92 1019.2
20180121115325 28 243 0.0 2.0 0.00 0.00 0.00 92 1019.0
20180121114824 29 243 1.0 2.0 0.00 0.00 0.00 92 1019.0
20180121114338 29 243 1.0 3.0 0.00 0.00 0.00 93 1019.0
20180121113834 29 243 1.0 3.0 0.00 0.00 0.00 93 1018.9
20180121113332 29 241 2.0 4.0 0.00 0.00 0.00 93 1019.0
20180121112826 29 241 2.0 4.0 0.00 0.00 0.00 93 1019.0
20180121112323 29 234 2.0 3.0 0.00 0.00 0.00 93 1019.1
20180121111818 29 234 1.0 3.0 0.00 0.00 0.00 93 1019.0
20180121111334 29 234 2.0 3.0 0.00 0.00 0.00 93 1018.9
20180121110831 29 237 2.0 3.0 0.00 0.00 0.00 93 1018.8
20180121110327 29 237 2.0 3.0 0.00 0.00 0.00 93 1018.8
20180121105826 29 239 2.0 4.0 0.00 0.00 0.00 93 1018.8
20180121105321 29 239 3.0 4.0 0.00 0.00 0.00 93 1018.7
20180121104833 29 240 3.0 5.0 0.00 0.00 0.00 93 1018.7
20180121104326 29 241 3.0 5.0 0.00 0.00 0.00 93 1018.8
20180121103818 29 243 2.0 4.0 0.00 0.00 0.00 93 1018.8
20180121103333 29 239 2.0 4.0 0.00 0.00 0.00 93 1018.7
20180121102831 29 240 3.0 4.0 0.00 0.00 0.00 93 1018.7
20180121102327 28 240 2.0 5.0 0.00 0.00 0.00 93 1018.5
20180121101820 28 245 2.0 4.0 0.00 0.00 0.00 93 1018.7